DW8219 Weather Reports


time (UTC)temp
F
wind
direction
speed
knots
gust
knots
rain 1hr
in
rain 24hr
in
rain mn
in
humidity
%
barometer
mb
20260506122904 66 220 5.2 13.9 0.00 0.00 0.00 69 1007.6
20260506122405 66 199 8.7 18.2 0.00 0.00 0.00 69 1007.7
20260506121904 66 207 7.8 18.2 0.00 0.00 0.00 69 1007.5
20260506120904 66 194 7.0 13.0 0.00 0.00 0.00 69 1007.9
20260506120404 66 219 6.1 11.3 0.00 0.00 0.00 69 1007.9
20260506115904 66 206 7.0 13.0 0.00 0.00 0.00 70 1007.9
20260506115404 66 208 7.8 14.8 0.00 0.00 0.00 70 1008.0
20260506114905 66 198 9.6 15.6 0.00 0.00 0.00 70 1008.0
20260506113904 66 201 7.8 13.0 0.00 0.00 0.00 70 1007.9
20260506113404 66 210 7.8 13.0 0.00 0.00 0.00 71 1007.9
20260506111904 65 226 6.1 13.9 0.00 0.00 0.00 72 1007.9
20260506111405 65 219 7.0 12.2 0.00 0.00 0.00 72 1007.8
20260506110904 65 196 5.2 13.0 0.00 0.00 0.00 73 1007.8
20260506110405 64 200 6.1 13.9 0.00 0.00 0.00 74 1007.8
20260506105904 64 160 5.2 13.0 0.00 0.00 0.00 74 1007.7
20260506105405 64 194 7.0 14.8 0.00 0.00 0.00 74 1007.8
20260506104905 64 182 7.0 11.3 0.00 0.00 0.00 75 1007.8
20260506103905 64 214 4.3 10.4 0.00 0.00 0.00 75 1007.8
20260506102905 63 188 4.3 10.4 0.00 0.00 0.00 75 1007.8
20260506102404 63 191 3.5 10.4 0.00 0.00 0.00 76 1007.7
20260506101905 63 215 5.2 10.4 0.00 0.00 0.00 76 1007.6
20260506101405 63 186 4.3 8.7 0.00 0.00 0.00 76 1007.6
20260506100904 63 201 5.2 10.4 0.00 0.00 0.00 76 1007.6
20260506100406 63 176 4.3 10.4 0.00 0.00 0.00 76 1007.6
20260506095405 63 188 4.3 12.2 0.00 0.00 0.00 75 1007.6
20260506094905 63 163 5.2 12.2 0.00 0.00 0.00 76 1007.5
20260506094405 63 178 6.1 13.0 0.00 0.00 0.00 76 1007.5
20260506093905 63 173 6.1 11.3 0.00 0.00 0.00 76 1007.5
20260506093404 63 212 5.2 10.4 0.00 0.00 0.00 76 1007.5
20260506092905 63 177 4.3 10.4 0.00 0.00 0.00 76 1007.6
20260506092405 63 191 4.3 10.4 0.00 0.00 0.00 76 1007.6
20260506091904 63 185 6.1 11.3 0.00 0.00 0.00 76 1007.7
20260506091404 63 178 5.2 11.3 0.00 0.00 0.00 76 1007.6
20260506090905 63 182 4.3 10.4 0.00 0.00 0.00 76 1007.7
20260506085905 63 179 7.8 13.0 0.00 0.00 0.00 76 1007.7
20260506085405 63 168 5.2 10.4 0.00 0.00 0.00 76 1007.8
20260506084404 63 179 7.0 11.3 0.00 0.00 0.00 76 1007.8
20260506083905 63 180 4.3 11.3 0.00 0.00 0.00 76 1007.7
20260506083404 63 185 4.3 10.4 0.00 0.00 0.00 76 1007.7
20260506082904 63 179 3.5 11.3 0.00 0.00 0.00 75 1007.8
20260506081904 63 167 5.2 8.7 0.00 0.00 0.00 74 1007.8
20260506081404 63 160 4.3 7.8 0.00 0.00 0.00 74 1007.8
20260506080904 64 167 4.3 12.2 0.00 0.00 0.00 74 1007.9
20260506080404 64 168 7.0 10.4 0.00 0.00 0.00 73 1007.8
20260506073405 64 179 2.6 10.4 0.00 0.00 0.00 72 1007.8
20260506072904 64 158 2.6 7.8 0.00 0.00 0.00 71 1007.8
20260506071905 65 173 2.6 10.4 0.00 0.00 0.00 69 1007.9
20260506071404 66 175 6.1 12.2 0.00 0.00 0.00 69 1007.9
20260506070904 66 181 5.2 11.3 0.00 0.00 0.00 68 1007.9
20260506070405 66 218 7.8 14.8 0.00 0.00 0.00 68 1008.1
20260506062404 66 195 6.1 11.3 0.00 0.00 0.00 66 1008.1
20260506061904 66 213 5.2 10.4 0.00 0.00 0.00 66 1008.0
20260506061405 66 196 6.1 10.4 0.00 0.00 0.00 66 1008.0
20260506060904 66 207 5.2 10.4 0.00 0.00 0.00 65 1008.0
20260506060405 67 177 6.1 12.2 0.00 0.00 0.00 65 1007.9
20260506050905 68 188 7.8 17.4 0.00 0.00 0.00 62 1008.6
20260506050406 68 179 11.3 17.4 0.00 0.00 0.00 61 1008.5
20260506044905 68 207 7.8 12.2 0.00 0.00 0.00 61 1008.4
20260506044405 68 204 6.1 12.2 0.00 0.00 0.00 60 1008.4
20260506043904 68 218 7.8 14.8 0.00 0.00 0.00 60 1008.5
20260506042405 68 214 9.6 17.4 0.00 0.00 0.00 59 1008.5
20260506041904 69 193 7.8 13.0 0.00 0.00 0.00 58 1008.4
20260506041405 69 204 7.8 17.4 0.00 0.00 0.00 58 1008.4
20260506040905 69 198 3.5 18.2 0.00 0.00 0.00 57 1008.3
20260506040405 69 194 10.4 18.2 0.00 0.00 0.00 57 1008.3
20260506035905 69 188 7.0 18.2 0.00 0.00 0.00 57 1008.3
20260506035406 69 200 7.8 14.8 0.00 0.00 0.00 57 1008.4
20260506034905 69 200 8.7 13.9 0.00 0.00 0.00 56 1008.4
20260506033905 69 200 7.8 17.4 0.00 0.00 0.00 56 1008.4
20260506033404 69 211 7.8 20.9 0.00 0.00 0.00 55 1008.4
20260506032906 69 193 7.8 14.8 0.00 0.00 0.00 55 1008.4
20260506032405 69 208 8.7 17.4 0.00 0.00 0.00 55 1008.3
20260506031904 69 213 5.2 12.2 0.00 0.00 0.00 55 1008.3
20260506031405 69 191 7.0 17.4 0.00 0.00 0.00 56 1008.3
20260506030905 69 178 5.2 11.3 0.00 0.00 0.00 56 1008.3
20260506030405 69 176 3.5 10.4 0.00 0.00 0.00 56 1008.2
20260506025906 69 193 6.1 13.0 0.00 0.00 0.00 56 1008.2
20260506025405 69 179 6.1 12.2 0.00 0.00 0.00 56 1008.2
20260506024905 69 176 5.2 13.0 0.00 0.00 0.00 57 1008.3
20260506024406 69 188 5.2 12.2 0.00 0.00 0.00 57 1008.3
20260506023905 69 202 4.3 10.4 0.00 0.00 0.00 56 1008.3
20260506023404 70 169 5.2 11.3 0.00 0.00 0.00 56 1008.4
20260506022905 70 184 6.1 11.3 0.00 0.00 0.00 55 1008.3
20260506022403 70 184 5.2 13.0 0.00 0.00 0.00 55 1008.2
20260506021904 70 179 4.3 11.3 0.00 0.00 0.00 55 1008.3
20260506021404 70 177 6.1 15.6 0.00 0.00 0.00 55 1008.3
20260506020903 70 183 5.2 13.0 0.00 0.00 0.00 55 1008.3
20260506020404 70 182 8.7 13.9 0.00 0.00 0.00 54 1008.2
20260506015904 70 184 4.3 11.3 0.00 0.00 0.00 54 1008.2
20260506015404 71 176 7.8 13.0 0.00 0.00 0.00 53 1008.2
20260506014904 71 176 8.7 17.4 0.00 0.00 0.00 53 1008.1
20260506014404 71 171 8.7 17.4 0.00 0.00 0.00 52 1008.0
20260506013904 71 179 7.8 20.0 0.00 0.00 0.00 52 1008.0
20260506013404 71 179 12.2 20.9 0.00 0.00 0.00 52 1007.9
20260506012404 71 183 5.2 13.9 0.00 0.00 0.00 50 1007.8
20260506011903 72 176 5.2 12.2 0.00 0.00 0.00 48 1007.7
20260506011404 73 150 3.5 13.9 0.00 0.00 0.00 45 1007.7
20260506005904 76 185 6.1 14.8 0.00 0.00 0.00 39 1007.3
20260506005404 76 198 8.7 14.8 0.00 0.00 0.00 39 1007.2
20260506004904 76 186 9.6 15.6 0.00 0.00 0.00 39 1007.2
20260506004404 76 230 7.8 17.4 0.00 0.00 0.00 38 1007.1
20260506003904 76 198 8.7 17.4 0.00 0.00 0.00 38 1007.1
20260506003404 77 200 10.4 20.0 0.00 0.00 0.00 38 1007.0
20260506002904 77 208 7.8 17.4 0.00 0.00 0.00 37 1007.0
20260506002404 77 207 10.4 18.2 0.00 0.00 0.00 37 1007.1
20260506001904 77 191 6.1 14.8 0.00 0.00 0.00 35 1006.9
20260506001404 77 203 4.3 11.3 0.00 0.00 0.00 34 1006.9
20260506000904 77 232 5.2 12.2 0.00 0.00 0.00 34 1006.9
20260506000404 77 215 10.4 17.4 0.00 0.00 0.00 33 1006.8
20260505235904 78 208 7.8 15.6 0.00 0.00 0.00 33 1006.7
20260505235404 78 221 9.6 15.6 0.00 0.00 0.00 32 1006.7
20260505234404 78 210 8.7 17.4 0.00 0.00 0.00 32 1006.6
20260505233904 78 202 2.6 10.4 0.00 0.00 0.00 32 1006.6
20260505233405 78 210 7.8 12.2 0.00 0.00 0.00 31 1006.6
20260505232905 78 212 6.1 14.8 0.00 0.00 0.00 31 1006.5
20260505231904 79 212 7.0 15.6 0.00 0.00 0.00 30 1006.2
20260505231404 79 230 10.4 20.0 0.00 0.00 0.00 29 1006.3
20260505230904 79 228 8.7 19.1 0.00 0.00 0.00 29 1006.2
20260505230404 79 209 10.4 19.1 0.00 0.00 0.00 29 1006.2
20260505225905 79 233 13.0 20.0 0.00 0.00 0.00 28 1006.1
20260505225405 79 223 8.7 17.4 0.00 0.00 0.00 28 1006.0
20260505224904 80 238 10.4 22.6 0.00 0.00 0.00 29 1006.0
20260505224405 80 226 11.3 21.7 0.00 0.00 0.00 28 1005.8
20260505223904 80 212 8.7 20.0 0.00 0.00 0.00 28 1005.9
20260505223405 80 229 11.3 18.2 0.00 0.00 0.00 28 1005.8
20260505222905 80 229 8.7 22.6 0.00 0.00 0.00 28 1005.7
20260505222404 81 222 10.4 21.7 0.00 0.00 0.00 27 1005.7
20260505221904 80 217 13.9 28.7 0.00 0.00 0.00 28 1005.8
20260505220905 80 221 12.2 21.7 0.00 0.00 0.00 28 1005.8
20260505220405 80 223 11.3 20.0 0.00 0.00 0.00 28 1005.7
20260505215905 81 220 12.2 25.2 0.00 0.00 0.00 28 1005.5
20260505215405 81 236 11.3 20.9 0.00 0.00 0.00 28 1005.5
20260505214904 81 216 12.2 24.3 0.00 0.00 0.00 28 1005.4
20260505214404 81 205 8.7 18.2 0.00 0.00 0.00 29 1005.2
20260505213905 81 207 10.4 21.7 0.00 0.00 0.00 28 1005.5
20260505213405 82 228 13.9 26.1 0.00 0.00 0.00 28 1005.5
20260505212905 82 200 13.0 22.6 0.00 0.00 0.00 29 1005.3
20260505212404 83 203 11.3 21.7 0.00 0.00 0.00 28 1005.3
20260505211905 82 212 13.0 22.6 0.00 0.00 0.00 29 1005.3
20260505211405 82 194 15.6 24.3 0.00 0.00 0.00 29 1005.4
20260505205404 83 232 10.4 19.1 0.00 0.00 0.00 28 1005.3
20260505203904 83 216 10.4 18.2 0.00 0.00 0.00 28 1005.3
20260505202403 83 217 11.3 22.6 0.00 0.00 0.00 30 1005.5
20260505201904 83 212 17.4 32.2 0.00 0.00 0.00 28 1005.5
20260505201404 83 213 13.9 26.1 0.00 0.00 0.00 29 1005.4
20260505200903 83 216 8.7 15.6 0.00 0.00 0.00 30 1005.5
20260505200404 84 197 12.2 18.2 0.00 0.00 0.00 29 1005.5
20260505195904 83 228 9.6 20.9 0.00 0.00 0.00 29 1005.7
20260505195403 83 222 11.3 22.6 0.00 0.00 0.00 29 1005.8
20260505194904 83 197 14.8 22.6 0.00 0.00 0.00 28 1005.8
20260505194404 83 230 14.8 22.6 0.00 0.00 0.00 28 1005.7
20260505193904 83 209 14.8 30.4 0.00 0.00 0.00 30 1005.7
20260505193404 83 196 12.2 22.6 0.00 0.00 0.00 30 1006.0
20260505192904 83 200 13.0 22.6 0.00 0.00 0.00 31 1006.0
20260505191905 83 217 8.7 20.0 0.00 0.00 0.00 32 1006.2
20260505191403 83 220 13.0 20.0 0.00 0.00 0.00 31 1006.3
20260505190904 83 194 13.0 22.6 0.00 0.00 0.00 30 1006.2
20260505190405 84 215 8.7 17.4 0.00 0.00 0.00 32 1006.4
20260505185904 83 197 7.8 21.7 0.00 0.00 0.00 35 1006.7
20260505185404 83 217 12.2 20.0 0.00 0.00 0.00 33 1006.7
20260505184904 83 208 9.6 20.9 0.00 0.00 0.00 34 1006.8
20260505183403 83 216 7.8 22.6 0.00 0.00 0.00 35 1006.8
20260505182904 83 179 13.0 22.6 0.00 0.00 0.00 33 1006.9
20260505182405 83 211 9.6 17.4 0.00 0.00 0.00 36 1006.9
20260505181905 83 183 9.6 18.2 0.00 0.00 0.00 33 1007.0
20260505181405 83 202 12.2 21.7 0.00 0.00 0.00 34 1007.0
20260505180905 83 215 13.0 21.7 0.00 0.00 0.00 33 1007.1
20260505180404 83 198 10.4 22.6 0.00 0.00 0.00 33 1007.0
20260505175904 83 195 11.3 20.0 0.00 0.00 0.00 35 1007.0
20260505175406 82 190 6.1 13.9 0.00 0.00 0.00 38 1007.0
20260505174904 82 193 7.8 19.1 0.00 0.00 0.00 40 1007.1
20260505174404 82 210 11.3 20.0 0.00 0.00 0.00 38 1007.2
20260505173905 82 172 11.3 18.2 0.00 0.00 0.00 36 1007.3
20260505173406 81 211 6.1 18.2 0.00 0.00 0.00 39 1007.3
20260505172904 81 182 6.1 11.3 0.00 0.00 0.00 41 1007.5
20260505172404 81 210 8.7 13.9 0.00 0.00 0.00 41 1007.5
20260505171904 80 156 7.8 14.8 0.00 0.00 0.00 42 1007.4
20260505170905 80 166 7.8 13.9 0.00 0.00 0.00 42 1007.6
20260505170405 81 193 7.8 15.6 0.00 0.00 0.00 40 1007.7
20260505165904 80 202 4.3 10.4 0.00 0.00 0.00 42 1007.7
20260505164905 80 208 7.0 13.9 0.00 0.00 0.00 43 1007.9
20260505164404 80 167 4.3 10.4 0.00 0.00 0.00 41 1007.8
20260505163906 80 192 6.1 12.2 0.00 0.00 0.00 41 1007.9
20260505163405 81 207 5.2 12.2 0.00 0.00 0.00 40 1008.0
20260505162904 80 242 2.6 13.0 0.00 0.00 0.00 41 1008.1
20260505162404 79 210 4.3 11.3 0.00 0.00 0.00 41 1008.2
20260505161405 78 209 5.2 11.3 0.00 0.00 0.00 43 1008.4
20260505160905 78 173 4.3 13.0 0.00 0.00 0.00 44 1008.4
20260505160404 78 222 5.2 13.9 0.00 0.00 0.00 44 1008.4
20260505151905 75 177 3.5 12.2 0.00 0.00 0.00 45 1009.0
20260505151405 75 213 5.2 8.7 0.00 0.00 0.00 50 1009.0
20260505150405 74 174 1.7 7.8 0.00 0.00 0.00 47 1008.9
20260505140404 70 231 5.2 10.4 0.00 0.00 0.00 52 1009.5
20260505124905 66 225 3.5 8.7 0.00 0.00 0.00 60 1008.9
20260505124404 65 229 1.7 8.7 0.00 0.00 0.00 62 1009.0
20260505123905 65 216 3.5 8.7 0.00 0.00 0.00 63 1009.0
20260505123404 64 218 2.6 5.2 0.00 0.00 0.00 64 1009.1